This is the latest recevied weather packets stored in our database for station/object KI2K. If no packets are shown the sender has not sent any weather packets the latest 10 day(s).
| Time | Temp. | Humidity | Pressure | Rain* | Wind** | Luminosity | Snow |
|---|---|---|---|---|---|---|---|
| 1778117778 | 8.89° C | 79% | 1014.4 hPa | 0 mm | - | 0 W/m² | - |
| 1778117475 | 8.89° C | 79% | 1014.4 hPa | 0 mm | - | 0 W/m² | - |
| 1778117173 | 9.44° C | 78% | 1014.4 hPa | 0 mm | - | 0 W/m² | - |
| 1778116868 | 9.44° C | 76% | 1014.3 hPa | 0 mm | - | 0 W/m² | - |
| 1778116566 | 10° C | 74% | 1014.5 hPa | 0 mm | - | 0 W/m² | - |
| 1778116262 | 10° C | 74% | 1014.3 hPa | 0 mm | - | 0 W/m² | - |
| 1778115957 | 10° C | 73% | 1014.1 hPa | 0 mm | - | 0 W/m² | - |
| 1778115653 | 10° C | 74% | 1014.1 hPa | 0 mm | - | 0 W/m² | - |
| 1778115351 | 10.56° C | 73% | 1014.3 hPa | 0 mm | - | 0 W/m² | - |
| 1778115046 | 10.56° C | 70% | 1013.9 hPa | 0 mm | - | 0 W/m² | - |
| 1778114744 | 10.56° C | 69% | 1013.9 hPa | 0 mm | - | 0 W/m² | - |
| 1778114441 | 10.56° C | 69% | 1013.7 hPa | 0 mm | - | 2 W/m² | - |
| 1778114136 | 11.11° C | 68% | 1013.8 hPa | 0 mm | - | 4 W/m² | - |
| 1778113826 | 11.11° C | 66% | 1013.7 hPa | 0 mm | - | 5 W/m² | - |
| 1778113523 | 11.67° C | 65% | 1013.6 hPa | 0 mm | - | 7 W/m² | - |
| 1778113219 | 11.67° C | 63% | 1013.6 hPa | 0 mm | - | 10 W/m² | - |
| 1778112916 | 12.22° C | 61% | 1013.7 hPa | 0 mm | - | 13 W/m² | - |
| 1778112614 | 12.22° C | 61% | 1013.3 hPa | 0 mm | - | 16 W/m² | - |
| 1778112309 | 12.78° C | 59% | 1013.3 hPa | 0 mm | - | 19 W/m² | - |
| 1778112005 | 12.78° C | 58% | 1013.2 hPa | 0 mm | - | 21 W/m² | - |
| 1778111703 | 12.78° C | 56% | 1013.1 hPa | 0 mm | - | 25 W/m² | - |
| 1778111398 | 13.33° C | 57% | 1013.2 hPa | 0 mm | - | 26 W/m² | - |
| 1778111095 | 13.89° C | 57% | 1013.2 hPa | 0 mm | - | 27 W/m² | - |
| 1778110793 | 13.89° C | 58% | 1013.2 hPa | 0 mm | - | 40 W/m² | - |
| 1778110489 | 13.89° C | 55% | 1013.1 hPa | 0 mm | - | 34 W/m² | - |
* Rain latest hour (hover to see other rain measurements)
** Current wind speed in m/s (hover to see current wind gust speed)